Weather History for Huntington, WV

Change the Weather History Date:

Sunday, January 6, 2013

  Actual Average Record
Temperature  
Mean Temperature 39 °F 34 °F  
Max Temperature 45 °F 42 °F 74 °F (1946)
Min Temperature 32 °F 25 °F -4 °F (1942)
Degree Days  
Heating Degree Days 26 31  
Month to date heating degree days 190 186  
Since 1 July heating degree days 1932 1941  
Cooling Degree Days 0 0  
Month to date cooling degree days 0 0  
Year to date cooling degree days 0 0  
Moisture  
Dew Point 26 °F    
Average Humidity 62    
Maximum Humidity 70    
Minimum Humidity 53    
Precipitation  
Precipitation T in 0.10 in 2.35 in (1895)
Month to date precipitation 0.14 0.58  
Year to date precipitation 0.14 0.58  
Snow  
Snow 0.00 in - - ()
Month to date snowfall T  
Since 1 September snowfall 3.5  
Snow Depth 0.00 in    
Sea Level Pressure  
Sea Level Pressure 30.17 in    
Wind  
Wind Speed 8 mph (WSW)    
Max Wind Speed 17 mph    
Max Gust Speed 26 mph    
Visibility 10 miles    
Events      
T = Trace of Precipitation, MM = Missing Value Source: NWS Daily Summary

Daily Weather History Graph

Daily Weather History Graph

Search for Another Location

Airport:

Trip Planner

Search our weather history database for the weather conditions in past years. The results will help you decide how hot, cold, wet, or windy it might be!

Date:

Astronomy

Jan. 06, 2013 Rise Set
Actual Time 7:47 AM EST 5:25 PM EST
Civil Twilight 7:18 AM EST 5:54 PM EST
Nautical Twilight 6:45 AM EST 6:27 PM EST
Astronomical Twilight 6:13 AM EST 6:59 PM EST
Moon 2:02 AM EST (1/6) 12:50 PM EST (1/6)
Length of Visible Light 10h 36m
Length of Day
9h 37m
Waning Crescent, 33% of the Moon is Illuminated
Jan 6
Waning Crescent
Jan 11
New
Jan 18
First Quarter
Jan 26
Full
Feb 3
Last Quarter

Hourly Weather History & Observations

Time (EST) Temp. Windchill Dew Point Humidity Pressure Visibility Wind Dir Wind Speed Gust Speed Precip Events Conditions
12:51 AM 39.0 °F 36.8 °F 25.0 °F 57% 30.19 in 10.0 mi SSW 3.5 mph - N/A   Overcast
1:51 AM 37.9 °F 34.4 °F 25.0 °F 60% 30.18 in 10.0 mi SSW 4.6 mph - N/A   Overcast
2:51 AM 37.9 °F 35.5 °F 25.0 °F 60% 30.17 in 10.0 mi SSW 3.5 mph - N/A   Overcast
3:51 AM 37.9 °F 33.5 °F 25.0 °F 60% 30.16 in 10.0 mi SSW 5.8 mph - N/A   Overcast
4:51 AM 37.9 °F 33.5 °F 25.0 °F 60% 30.14 in 10.0 mi SSW 5.8 mph - N/A   Overcast
5:51 AM 37.9 °F 33.5 °F 26.1 °F 62% 30.13 in 10.0 mi SSW 5.8 mph - N/A   Overcast
6:51 AM 37.9 °F 35.5 °F 26.1 °F 62% 30.14 in 10.0 mi SSW 3.5 mph - N/A   Overcast
7:51 AM 37.9 °F 34.4 °F 26.1 °F 62% 30.14 in 10.0 mi SSW 4.6 mph - N/A   Overcast
8:51 AM 37.9 °F 34.4 °F 27.0 °F 65% 30.14 in 10.0 mi SSW 4.6 mph - N/A   Overcast
9:51 AM 39.0 °F 34.0 °F 27.0 °F 62% 30.15 in 10.0 mi SW 6.9 mph - N/A   Overcast
10:51 AM 41.0 °F 36.4 °F 28.0 °F 60% 30.14 in 10.0 mi SSW 6.9 mph - N/A   Overcast
11:51 AM 42.1 °F 35.7 °F 28.9 °F 60% 30.11 in 10.0 mi SSW 11.5 mph - N/A   Overcast
12:51 PM 43.0 °F 37.7 °F 28.9 °F 58% 30.08 in 10.0 mi SSW 9.2 mph - N/A   Overcast
1:51 PM 45.0 °F 38.5 °F 28.9 °F 53% 30.05 in 10.0 mi WSW 13.8 mph 20.7 mph N/A   Overcast
2:51 PM 44.1 °F 39.0 °F 28.0 °F 53% 30.06 in 10.0 mi SW 9.2 mph - N/A   Overcast
3:51 PM 42.8 °F 36.6 °F 28.4 °F 57% 30.07 in 10.0 mi WSW 11.5 mph 17.3 mph N/A   Overcast
4:51 PM 43.0 °F 37.7 °F 28.0 °F 56% 30.09 in 10.0 mi WSW 9.2 mph 19.6 mph N/A   Overcast
5:51 PM 42.8 °F 35.4 °F 30.2 °F 61% 30.12 in 10.0 mi West 15.0 mph 25.3 mph N/A   Overcast
6:51 PM 39.9 °F 32.5 °F 30.0 °F 68% 30.17 in 10.0 mi West 12.7 mph 24.2 mph N/A   Overcast
7:51 PM 37.0 °F 28.1 °F 28.0 °F 70% 30.22 in 10.0 mi WNW 15.0 mph 23.0 mph N/A   Overcast
7:59 PM 37.4 °F 30.8 °F 26.6 °F 65% 30.20 in 10.0 mi West 9.2 mph 24.2 mph N/A   Overcast
8:51 PM 35.1 °F 27.4 °F 25.0 °F 67% 30.26 in 10.0 mi WNW 10.4 mph 18.4 mph N/A   Overcast
9:51 PM 34.0 °F 28.0 °F 23.0 °F 64% 30.29 in 10.0 mi NW 6.9 mph 18.4 mph N/A   Overcast
10:39 PM 33.8 °F 23.9 °F 21.2 °F 60% 30.30 in 10.0 mi NW 15.0 mph 23.0 mph N/A   Overcast
10:51 PM 32.0 °F 23.6 °F 21.0 °F 64% 30.32 in 10.0 mi NW 10.4 mph 18.4 mph N/A   Overcast
11:51 PM 32.0 °F 25.6 °F 21.0 °F 64% 30.35 in 10.0 mi Variable 6.9 mph - N/A   Overcast